Terug naar catalogus

ONEWEB-0090

ActiefCommunicatiePO
NORAD 45427·PAYLOAD·🇬🇧 United Kingdom

Gelanceerd Mar 21, 2020 vanaf Baikonur Cosmodrome

Loading…

Volgende Passages (komende 24 uur)

TLE

VersSource: CelesTrak SupGP

Epoch: Sep 14, 2026, 15:43 UTC

1 45427C 20020D   26257.65505046  .00001835  00000+0  51825-2 0  2575
2 45427  87.8980   3.2921 0001726 101.1210   4.1243 13.11414229    16

Volg ONEWEB-0090 in realtime met AllMySat

Download on the App Store